DAL1662 KSLC-KLAS

Flight info

Callsign DAL1662
Flight time 1h 4m
Altitude 32000
Route FFU9 MLF STEWW CHOWW4
Aircraft A320/M-SDE3FGHIRWY/LB1

Departure

Time 2026-05-05 04:07
Airport Salt Lake City International Airport (KSLC)

Arrival

Time 2026-05-05 05:11
Airport Harry Reid International Airport (KLAS)
Time Latitude Longitude Altitude Speed Heading
2026-05-05 03:34 40.78489 -111.97899 4235 ft 0 kts
2026-05-05 03:39 40.78488 -111.97899 4235 ft 0 kts
2026-05-05 03:52 40.78467 -111.97899 4233 ft 0 kts
2026-05-05 03:58 40.78470 -111.97899 4233 ft 1 kts
2026-05-05 03:58 40.78480 -111.97885 4233 ft 4 kts 65°
2026-05-05 03:58 40.78479 -111.97818 4233 ft 10 kts 91°
2026-05-05 03:59 40.78482 -111.97728 4233 ft 9 kts 73°
2026-05-05 03:59 40.78496 -111.97704 4233 ft 1 kts 44°
2026-05-05 03:59 40.78525 -111.97685 4235 ft 11 kts 26°
2026-05-05 03:59 40.78594 -111.97662 4237 ft 8 kts
2026-05-05 04:00 40.78639 -111.97666 4238 ft 5 kts 356°
2026-05-05 04:00 40.78675 -111.97670 4237 ft 7 kts 355°
2026-05-05 04:00 40.78747 -111.97678 4238 ft 14 kts 355°
2026-05-05 04:00 40.78857 -111.97691 4239 ft 16 kts 355°
2026-05-05 04:01 40.78956 -111.97702 4240 ft 13 kts 354°
2026-05-05 04:01 40.79038 -111.97713 4243 ft 12 kts 354°
2026-05-05 04:01 40.79123 -111.97724 4237 ft 13 kts 355°
2026-05-05 04:01 40.79213 -111.97734 4235 ft 13 kts 355°
2026-05-05 04:02 40.79296 -111.97743 4235 ft 11 kts 355°
2026-05-05 04:02 40.79373 -111.97752 4234 ft 13 kts 354°
2026-05-05 04:02 40.79489 -111.97764 4231 ft 20 kts 355°
2026-05-05 04:02 40.79650 -111.97786 4232 ft 25 kts 356°
2026-05-05 04:03 40.79835 -111.97805 4235 ft 28 kts 354°
2026-05-05 04:03 40.80033 -111.97827 4238 ft 29 kts 356°
2026-05-05 04:03 40.80233 -111.97852 4242 ft 29 kts 354°
2026-05-05 04:03 40.80412 -111.97873 4241 ft 20 kts 356°
2026-05-05 04:04 40.80547 -111.97887 4238 ft 17 kts 354°
2026-05-05 04:04 40.80660 -111.97900 4238 ft 15 kts 356°
2026-05-05 04:04 40.80728 -111.97884 4236 ft 9 kts 40°
2026-05-05 04:04 40.80735 -111.97872 4235 ft 0 kts 54°
2026-05-05 04:05 40.80735 -111.97871 4236 ft 1 kts 55°
2026-05-05 04:05 40.80745 -111.97818 4235 ft 11 kts 88°
2026-05-05 04:05 40.80712 -111.97699 4234 ft 13 kts 140°
2026-05-05 04:05 40.80640 -111.97682 4236 ft 3 kts 174°
2026-05-05 04:06 40.80639 -111.97682 4236 ft 1 kts 174°
2026-05-05 04:06 40.80487 -111.97665 4240 ft 56 kts 175°
2026-05-05 04:06 40.79874 -111.97589 4236 ft 119 kts 175°
2026-05-05 04:06 40.78885 -111.97473 4256 ft 166 kts 175°
2026-05-05 04:07 40.77743 -111.97317 4990 ft 164 kts 172°
2026-05-05 04:07 40.76610 -111.97104 5745 ft 164 kts 169°
2026-05-05 04:07 40.75456 -111.96873 6170 ft 176 kts 170°
2026-05-05 04:07 40.74178 -111.96611 6447 ft 194 kts 171°
2026-05-05 04:08 40.72812 -111.96339 6950 ft 199 kts 172°
2026-05-05 04:08 40.71395 -111.96092 7434 ft 215 kts 174°
2026-05-05 04:08 40.69813 -111.95968 7827 ft 240 kts 177°
2026-05-05 04:08 40.68062 -111.95890 8242 ft 264 kts 179°
2026-05-05 04:09 40.66171 -111.95824 8857 ft 277 kts 179°
2026-05-05 04:09 40.64246 -111.95758 9723 ft 282 kts 179°
2026-05-05 04:09 40.62252 -111.95680 10385 ft 295 kts 179°
2026-05-05 04:09 40.60119 -111.95585 10750 ft 317 kts 179°
2026-05-05 04:10 40.57884 -111.95480 11398 ft 326 kts 179°
2026-05-05 04:10 40.55600 -111.95374 12167 ft 331 kts 179°
2026-05-05 04:10 40.53279 -111.95267 12938 ft 336 kts 179°
2026-05-05 04:10 40.50925 -111.95157 13691 ft 341 kts 179°
2026-05-05 04:11 40.48533 -111.95044 14371 ft 346 kts 179°
2026-05-05 04:11 40.46117 -111.94931 15075 ft 349 kts 179°
2026-05-05 04:11 40.43717 -111.94820 15770 ft 352 kts 179°
2026-05-05 04:11 40.41255 -111.94700 16476 ft 355 kts 179°
2026-05-05 04:12 40.38775 -111.94577 17161 ft 359 kts 179°
2026-05-05 04:12 40.36266 -111.94456 17888 ft 362 kts 179°
2026-05-05 04:12 40.33741 -111.94336 18548 ft 364 kts 179°
2026-05-05 04:12 40.31200 -111.94217 19170 ft 367 kts 179°
2026-05-05 04:13 40.28641 -111.94099 19801 ft 369 kts 179°
2026-05-05 04:13 40.26065 -111.94248 20418 ft 372 kts 187°
2026-05-05 04:13 40.23488 -111.94631 21041 ft 374 kts 187°
2026-05-05 04:13 40.20925 -111.95008 21635 ft 377 kts 187°
2026-05-05 04:14 40.18301 -111.95391 22235 ft 381 kts 186°
2026-05-05 04:14 40.15660 -111.95776 22820 ft 384 kts 186°
2026-05-05 04:14 40.12992 -111.96165 23403 ft 387 kts 186°
2026-05-05 04:14 40.10306 -111.96553 23887 ft 390 kts 186°
2026-05-05 04:15 40.07601 -111.96943 24370 ft 392 kts 186°
2026-05-05 04:15 40.04884 -111.97334 24850 ft 394 kts 187°
2026-05-05 04:15 40.02150 -111.97729 25327 ft 396 kts 187°
2026-05-05 04:15 39.99411 -111.98126 25805 ft 397 kts 187°
2026-05-05 04:16 39.96692 -111.98520 26262 ft 399 kts 187°
2026-05-05 04:16 39.93928 -111.98924 26716 ft 401 kts 188°
2026-05-05 04:16 39.91150 -111.99328 27154 ft 402 kts 188°
2026-05-05 04:16 39.88365 -111.99729 27609 ft 404 kts 188°
2026-05-05 04:17 39.85567 -112.00128 28052 ft 406 kts 188°
2026-05-05 04:17 39.82759 -112.00529 28479 ft 407 kts 188°
2026-05-05 04:17 39.79936 -112.00938 28904 ft 408 kts 188°
2026-05-05 04:17 39.77104 -112.01350 29336 ft 410 kts 188°
2026-05-05 04:18 39.74303 -112.01755 29733 ft 411 kts 189°
2026-05-05 04:18 39.71453 -112.02164 30073 ft 413 kts 189°
2026-05-05 04:18 39.68590 -112.02573 30384 ft 415 kts 189°
2026-05-05 04:18 39.65714 -112.02984 30676 ft 417 kts 189°
2026-05-05 04:19 39.62825 -112.03395 30958 ft 419 kts 189°
2026-05-05 04:19 39.59922 -112.03807 31229 ft 421 kts 189°
2026-05-05 04:19 39.57006 -112.04221 31568 ft 421 kts 189°
2026-05-05 04:19 39.54090 -112.04636 31726 ft 420 kts 190°
2026-05-05 04:20 39.51273 -112.05034 31757 ft 404 kts 190°
2026-05-05 04:20 39.48528 -112.05418 31758 ft 391 kts 190°
2026-05-05 04:20 39.43868 -112.06079 31766 ft 385 kts 190°
2026-05-05 04:21 39.38745 -112.06820 31773 ft 383 kts 190°
2026-05-05 04:21 39.33446 -112.07586 31777 ft 383 kts 190°
2026-05-05 04:22 39.28187 -112.08331 31775 ft 383 kts 190°
2026-05-05 04:22 39.22889 -112.09073 31779 ft 383 kts 191°
2026-05-05 04:23 39.17600 -112.09823 31802 ft 382 kts 192°
2026-05-05 04:23 39.12655 -112.11915 31833 ft 372 kts 213°
2026-05-05 04:24 39.08702 -112.16026 31851 ft 368 kts 224°
2026-05-05 04:25 39.03072 -112.22742 31891 ft 368 kts 224°
2026-05-05 04:25 38.99307 -112.27205 31911 ft 368 kts 224°
2026-05-05 04:26 38.95546 -112.31664 31909 ft 368 kts 224°
2026-05-05 04:26 38.91809 -112.36091 31928 ft 368 kts 224°
2026-05-05 04:27 38.88043 -112.40543 31932 ft 368 kts 224°
2026-05-05 04:27 38.84273 -112.44984 31909 ft 368 kts 224°
2026-05-05 04:28 38.80503 -112.49417 31882 ft 368 kts 224°
2026-05-05 04:28 38.76763 -112.53817 31851 ft 367 kts 225°
2026-05-05 04:29 38.72998 -112.58244 31830 ft 367 kts 225°
2026-05-05 04:29 38.69240 -112.62665 31800 ft 367 kts 225°
2026-05-05 04:30 38.65478 -112.67073 31798 ft 366 kts 225°
2026-05-05 04:30 38.61715 -112.71463 31830 ft 366 kts 225°
2026-05-05 04:31 38.57988 -112.75805 31856 ft 365 kts 225°
2026-05-05 04:31 38.54241 -112.80172 31882 ft 364 kts 225°
2026-05-05 04:32 38.50502 -112.84526 31909 ft 363 kts 225°
2026-05-05 04:32 38.46777 -112.88865 31935 ft 362 kts 225°
2026-05-05 04:33 38.43088 -112.93156 31942 ft 361 kts 225°
2026-05-05 04:33 38.39377 -112.97457 31940 ft 360 kts 226°
2026-05-05 04:34 38.35460 -113.01420 31940 ft 364 kts 213°
2026-05-05 04:34 38.30711 -113.03854 31922 ft 369 kts 207°
2026-05-05 04:35 38.25912 -113.06131 31892 ft 368 kts 207°
2026-05-05 04:35 38.21154 -113.08389 31867 ft 367 kts 207°
2026-05-05 04:36 38.16377 -113.10655 31843 ft 366 kts 207°
2026-05-05 04:36 38.11609 -113.12906 31815 ft 365 kts 207°
2026-05-05 04:37 38.06885 -113.15139 31797 ft 364 kts 207°
2026-05-05 04:37 38.02137 -113.17383 31819 ft 364 kts 208°
2026-05-05 04:38 37.97394 -113.19622 31848 ft 363 kts 208°
2026-05-05 04:38 37.92665 -113.21855 31873 ft 363 kts 208°
2026-05-05 04:39 37.87934 -113.24073 31895 ft 362 kts 208°
2026-05-05 04:39 37.83240 -113.26266 31912 ft 362 kts 208°
2026-05-05 04:40 37.78525 -113.28473 31928 ft 361 kts 208°
2026-05-05 04:40 37.73823 -113.30674 31925 ft 360 kts 208°
2026-05-05 04:41 37.69162 -113.32852 31915 ft 359 kts 208°
2026-05-05 04:41 37.64480 -113.35046 31893 ft 359 kts 208°
2026-05-05 04:42 37.59798 -113.37224 31872 ft 359 kts 208°
2026-05-05 04:42 37.55115 -113.39398 31852 ft 359 kts 208°
2026-05-05 04:43 37.50471 -113.41563 31825 ft 358 kts 208°
2026-05-05 04:43 37.45797 -113.43737 31796 ft 358 kts 209°
2026-05-05 04:44 37.41122 -113.45902 31795 ft 358 kts 208°
2026-05-05 04:44 37.36450 -113.48065 31798 ft 357 kts 209°
2026-05-05 04:45 37.31814 -113.50206 31811 ft 358 kts 209°
2026-05-05 04:45 37.27144 -113.52360 31820 ft 357 kts 209°
2026-05-05 04:46 37.22518 -113.54614 31833 ft 355 kts 212°
2026-05-05 04:46 37.18063 -113.57224 31842 ft 353 kts 214°
2026-05-05 04:46 37.15856 -113.58572 31739 ft 354 kts 214°
2026-05-05 04:47 37.13678 -113.59894 31495 ft 352 kts 214°
2026-05-05 04:47 37.11475 -113.61213 31249 ft 350 kts 213°
2026-05-05 04:47 37.09276 -113.62515 31009 ft 349 kts 213°
2026-05-05 04:47 37.07082 -113.63801 30762 ft 347 kts 213°
2026-05-05 04:48 37.04898 -113.65074 30521 ft 346 kts 213°
2026-05-05 04:48 37.02719 -113.66340 30277 ft 344 kts 213°
2026-05-05 04:48 37.00551 -113.67598 30037 ft 343 kts 213°
2026-05-05 04:48 36.98391 -113.68847 29764 ft 341 kts 213°
2026-05-05 04:49 36.96241 -113.70092 29481 ft 340 kts 213°
2026-05-05 04:49 36.94126 -113.71322 29195 ft 340 kts 213°
2026-05-05 04:49 36.91991 -113.72570 28912 ft 338 kts 213°
2026-05-05 04:49 36.89870 -113.73812 28634 ft 336 kts 213°
2026-05-05 04:50 36.87752 -113.75051 28358 ft 335 kts 212°
2026-05-05 04:50 36.85643 -113.76284 28083 ft 334 kts 212°
2026-05-05 04:50 36.83541 -113.77511 27813 ft 333 kts 212°
2026-05-05 04:50 36.81444 -113.78732 27542 ft 331 kts 212°
2026-05-05 04:51 36.79371 -113.79936 27165 ft 327 kts 212°
2026-05-05 04:51 36.77347 -113.81111 26728 ft 324 kts 212°
2026-05-05 04:51 36.75312 -113.82293 26274 ft 322 kts 211°
2026-05-05 04:51 36.73286 -113.83469 25823 ft 320 kts 211°
2026-05-05 04:52 36.71272 -113.84638 25355 ft 319 kts 211°
2026-05-05 04:52 36.69264 -113.85805 24889 ft 318 kts 211°
2026-05-05 04:52 36.67261 -113.86969 24411 ft 318 kts 211°
2026-05-05 04:52 36.65257 -113.88134 23921 ft 318 kts 210°
2026-05-05 04:53 36.63250 -113.89301 23438 ft 318 kts 210°
2026-05-05 04:53 36.61244 -113.90463 22883 ft 318 kts 210°
2026-05-05 04:53 36.59359 -113.91774 22407 ft 312 kts 219°
2026-05-05 04:53 36.57790 -113.93595 21943 ft 307 kts 232°
2026-05-05 04:54 36.56491 -113.95691 21491 ft 305 kts 233°
2026-05-05 04:54 36.55197 -113.97787 21043 ft 305 kts 232°
2026-05-05 04:54 36.53898 -113.99879 20597 ft 306 kts 232°
2026-05-05 04:54 36.52594 -114.01974 20152 ft 307 kts 232°
2026-05-05 04:55 36.51287 -114.04078 19704 ft 308 kts 232°
2026-05-05 04:55 36.49976 -114.06188 19254 ft 309 kts 231°
2026-05-05 04:55 36.48677 -114.08276 18823 ft 310 kts 231°
2026-05-05 04:55 36.47352 -114.10402 18374 ft 312 kts 230°
2026-05-05 04:56 36.46021 -114.12539 17905 ft 314 kts 230°
2026-05-05 04:56 36.44686 -114.14685 17426 ft 314 kts 230°
2026-05-05 04:56 36.43359 -114.16818 17107 ft 310 kts 230°
2026-05-05 04:56 36.42044 -114.18930 16683 ft 309 kts 230°
2026-05-05 04:57 36.40726 -114.21039 16256 ft 309 kts 230°
2026-05-05 04:57 36.39410 -114.23145 15825 ft 309 kts 230°
2026-05-05 04:57 36.38090 -114.25243 15448 ft 308 kts 230°
2026-05-05 04:57 36.36767 -114.27326 15074 ft 307 kts 229°
2026-05-05 04:58 36.35462 -114.29370 14692 ft 306 kts 229°
2026-05-05 04:58 36.34143 -114.31435 14368 ft 304 kts 229°
2026-05-05 04:58 36.32828 -114.33492 14003 ft 303 kts 229°
2026-05-05 04:58 36.31518 -114.35541 13637 ft 302 kts 229°
2026-05-05 04:59 36.30212 -114.37582 13240 ft 302 kts 229°
2026-05-05 04:59 36.28914 -114.39606 12889 ft 300 kts 229°
2026-05-05 04:59 36.27620 -114.41630 12616 ft 297 kts 229°
2026-05-05 04:59 36.26358 -114.43608 12065 ft 290 kts 229°
2026-05-05 05:00 36.25124 -114.45537 11677 ft 290 kts 229°
2026-05-05 05:00 36.23866 -114.47480 11291 ft 289 kts 228°
2026-05-05 05:00 36.22603 -114.49410 10941 ft 287 kts 228°
2026-05-05 05:00 36.21345 -114.51324 10593 ft 286 kts 228°
2026-05-05 05:01 36.20096 -114.53233 10261 ft 284 kts 228°
2026-05-05 05:01 36.18859 -114.55128 9912 ft 283 kts 228°
2026-05-05 05:01 36.17631 -114.57009 9682 ft 277 kts 228°
2026-05-05 05:01 36.16839 -114.58223 9585 ft 271 kts 228°
2026-05-05 05:02 36.15253 -114.60649 8980 ft 263 kts 228°
2026-05-05 05:02 36.14150 -114.62341 8661 ft 250 kts 228°
2026-05-05 05:02 36.13082 -114.63976 8413 ft 235 kts 227°
2026-05-05 05:02 36.12086 -114.65497 8232 ft 222 kts 228°
2026-05-05 05:03 36.11108 -114.66984 8120 ft 223 kts 228°
2026-05-05 05:03 36.10128 -114.68472 8034 ft 223 kts 228°
2026-05-05 05:03 36.09479 -114.69458 7979 ft 223 kts 228°
2026-05-05 05:03 36.08502 -114.70941 7975 ft 223 kts 229°
2026-05-05 05:04 36.07666 -114.72556 7980 ft 226 kts 244°
2026-05-05 05:04 36.07323 -114.74464 7863 ft 229 kts 262°
2026-05-05 05:04 36.07315 -114.77004 7505 ft 217 kts 266°
2026-05-05 05:04 36.07330 -114.78856 7242 ft 215 kts 265°
2026-05-05 05:05 36.07334 -114.80084 7069 ft 217 kts 265°
2026-05-05 05:05 36.07338 -114.81961 6790 ft 219 kts 266°
2026-05-05 05:05 36.07343 -114.83838 6517 ft 217 kts 266°
2026-05-05 05:05 36.07347 -114.85693 6257 ft 216 kts 266°
2026-05-05 05:06 36.07350 -114.87545 5966 ft 214 kts 266°
2026-05-05 05:06 36.07354 -114.89970 5601 ft 212 kts 266°
2026-05-05 05:06 36.07357 -114.91769 5320 ft 204 kts 266°
2026-05-05 05:06 36.07359 -114.92935 5148 ft 198 kts 266°
2026-05-05 05:07 36.07361 -114.94569 4907 ft 188 kts 267°
2026-05-05 05:07 36.07362 -114.96163 4716 ft 184 kts 267°
2026-05-05 05:07 36.07363 -114.97740 4447 ft 181 kts 267°
2026-05-05 05:07 36.07365 -114.99238 4217 ft 168 kts 266°
2026-05-05 05:08 36.07366 -115.00616 4027 ft 150 kts 266°
2026-05-05 05:08 36.07366 -115.01877 3843 ft 144 kts 266°
2026-05-05 05:08 36.07367 -115.03069 3659 ft 135 kts 267°
2026-05-05 05:08 36.07366 -115.04219 3492 ft 133 kts 267°
2026-05-05 05:09 36.07366 -115.05359 3327 ft 134 kts 267°
2026-05-05 05:09 36.07366 -115.06499 3143 ft 135 kts 267°
2026-05-05 05:09 36.07366 -115.07649 2858 ft 132 kts 268°
2026-05-05 05:09 36.07367 -115.08785 2744 ft 132 kts 266°
2026-05-05 05:10 36.07371 -115.09934 2501 ft 135 kts 269°
2026-05-05 05:10 36.07368 -115.11096 2330 ft 134 kts 269°
2026-05-05 05:10 36.07369 -115.12256 2166 ft 135 kts 267°
2026-05-05 05:10 36.07364 -115.13387 2082 ft 121 kts 269°
2026-05-05 05:11 36.07362 -115.14205 2110 ft 69 kts 271°
2026-05-05 05:11 36.07365 -115.14643 2122 ft 43 kts 270°
2026-05-05 05:11 36.07411 -115.14908 2131 ft 24 kts 291°
2026-05-05 05:11 36.07478 -115.15060 2136 ft 18 kts 299°
2026-05-05 05:12 36.07535 -115.15137 2144 ft 6 kts 331°
2026-05-05 05:12 36.07570 -115.15158 2146 ft 10 kts 335°
2026-05-05 05:12 36.07668 -115.15215 2153 ft 18 kts 334°
2026-05-05 05:12 36.07763 -115.15263 2153 ft 11 kts 355°
2026-05-05 05:13 36.07805 -115.15198 2152 ft 12 kts 88°
2026-05-05 05:13 36.07799 -115.15079 2146 ft 15 kts 95°
2026-05-05 05:13 36.07789 -115.14953 2144 ft 15 kts 93°
2026-05-05 05:13 36.07799 -115.14845 2139 ft 12 kts 56°
2026-05-05 05:14 36.07852 -115.14750 2131 ft 16 kts 86°
2026-05-05 05:14 36.07843 -115.14601 2123 ft 15 kts 96°
2026-05-05 05:14 36.07834 -115.14478 2120 ft 14 kts 96°
2026-05-05 05:14 36.07830 -115.14358 2115 ft 11 kts 86°
2026-05-05 05:15 36.07826 -115.14258 2110 ft 14 kts 94°
2026-05-05 05:15 36.07825 -115.14140 2105 ft 8 kts 86°
2026-05-05 05:15 36.07827 -115.14084 2104 ft 4 kts 89°
2026-05-05 05:15 36.07827 -115.14074 2104 ft 0 kts 90°
2026-05-05 05:17 36.07827 -115.14046 2103 ft 8 kts 90°
2026-05-05 05:17 36.07863 -115.13948 2101 ft 19 kts 27°
2026-05-05 05:17 36.07965 -115.13846 2095 ft 15 kts 47°
2026-05-05 05:18 36.08026 -115.13795 2093 ft 9 kts
2026-05-05 05:18 36.08064 -115.13837 2093 ft 4 kts 315°
2026-05-05 05:18 36.08077 -115.13852 2093 ft 0 kts 316°
2026-05-05 05:19 36.08076 -115.13852 2093 ft 0 kts 316°